EST,Max TemperatureF,Mean TemperatureF,Min TemperatureF,Max Dew PointF,MeanDew PointF,Min DewpointF,Max Humidity, Mean Humidity, Min Humidity, Max Sea Level PressureIn, Mean Sea Level PressureIn, Min Sea Level PressureIn, Max VisibilityMiles, Mean VisibilityMiles, Min VisibilityMiles, Max Wind SpeedMPH, Mean Wind SpeedMPH, Max Gust SpeedMPH,PrecipitationIn, CloudCover, Events, WindDirDegrees
2013-11-1,65,58,51,57,49,37,100,71,42,29.65,29.47,29.32,10,9,6,30,14,49,0.37,5,Rain,206
2013-11-2,52,43,34,43,38,32,96,80,63,29.91,29.74,29.64,10,10,10,15,6,25,0.02,7,Rain,324
2013-11-3,35,27,19,32,19,12,96,67,38,30.51,30.19,29.88,10,10,10,15,7,25,0.00,4,Rain,356
2013-11-4,36,25,14,18,15,13,92,65,38,30.74,30.69,30.56,10,10,10,9,1,12,0.00,0,,308
2013-11-5,46,33,20,29,21,14,91,65,39,30.73,30.62,30.49,10,10,10,18,6,24,0.00,1,,168
2013-11-6,56,43,30,41,35,28,92,72,51,30.47,30.24,29.93,10,10,10,18,7,23,0.00,1,,170
2013-11-7,54,44,33,52,39,22,100,81,61,29.90,29.82,29.76,10,9,4,20,9,29,0.24,8,Rain,288
2013-11-8,36,31,26,28,24,19,84,72,59,30.13,29.96,29.87,10,7,1,22,8,31,0.01,7,Snow,306
2013-11-9,38,34,30,30,22,19,72,60,48,30.22,30.13,29.95,10,9,2,17,7,25,0.01,6,Snow,269
2013-11-10,43,38,32,36,32,30,96,85,73,29.96,29.84,29.73,10,5,1,20,8,24,0.29,8,Rain-Snow,204
2013-11-11,40,35,30,30,28,25,92,76,59,30.13,29.97,29.83,10,7,1,23,9,39,0.01,7,Snow,269
2013-11-12,31,26,21,28,19,13,92,80,68,30.28,30.08,29.87,10,7,0,22,13,32,T,8,Fog-Snow,306
2013-11-13,29,23,16,18,12,8,80,63,46,30.35,30.26,30.08,10,9,5,21,8,26,T,5,Snow,283
2013-11-14,41,32,23,26,23,18,84,69,54,30.10,30.07,30.04,10,10,10,12,4,16,0.00,2,,208
2013-11-15,53,38,22,26,20,13,96,58,20,30.23,30.16,30.11,10,10,8,16,3,21,0.00,0,,191
2013-11-16,56,42,27,29,24,19,78,51,24,30.34,30.30,30.22,10,10,10,10,1,14,0.00,1,,182
2013-11-17,49,38,26,47,37,23,93,82,70,30.32,30.14,29.79,10,9,2,18,8,26,0.09,7,Rain,177
2013-11-18,56,47,38,54,42,27,100,71,41,29.76,29.58,29.42,10,7,2,26,13,35,0.41,6,Rain,209
2013-11-19,38,32,25,25,18,14,85,69,53,30.39,30.01,29.68,10,8,2,26,14,38,T,8,Snow,306
2013-11-20,33,25,17,18,15,12,84,65,45,30.71,30.58,30.34,10,10,5,16,4,24,T,3,Snow,329
2013-11-21,41,27,13,20,14,5,96,60,23,30.70,30.57,30.39,10,10,8,13,2,15,0.00,1,,172
2013-11-22,41,33,25,36,31,19,100,82,63,30.38,30.00,29.81,10,4,0,12,0,20,0.07,8,Fog-Rain,8
2013-11-23,40,29,17,34,20,10,96,77,58,30.00,29.83,29.74,10,5,0,24,10,36,0.01,8,Fog-Rain-Snow,298
2013-11-24,16,13,10,10,5,-3,84,68,51,30.27,29.96,29.81,10,3,0,31,17,46,T,7,Fog-Snow,304
2013-11-25,27,17,6,13,3,-5,76,57,37,30.42,30.32,30.20,10,10,10,13,6,16,0.00,2,,176
2013-11-26,32,29,26,27,24,10,92,68,43,30.30,30.19,30.05,10,5,1,17,7,21,T,8,Snow,171
2013-11-27,35,31,27,34,31,24,100,93,85,30.04,29.52,29.35,10,3,0,14,6,20,1.15,8,Fog-Rain-Snow,324
2013-11-28,26,18,9,23,12,4,100,76,51,30.46,29.93,29.54,10,4,1,,,,0.00,7,Snow,-1
2013-11-29,20,12,4,9,6,1,92,74,56,30.82,30.62,30.42,10,10,4,10,2,14,T,4,,327
2013-11-30,24,11,-3,15,4,-6,100,73,45,30.87,30.66,30.39,10,9,2,22,6,29,T,3,Snow,175